SIA208 WADD-RJTT

Flight info

Callsign SIA208
Flight time N/A
Altitude 37000
Route EMTAS G578 OMDOB/N0487F390 G578 GURAG A590 BUBDO Y527 BILLY Y21 AKSEL
Aircraft A359/H-SDE2E3GHIJ3J4J5LM1ORWXY/LB1D1

Departure

Time N/A
Airport Denpasar I Gusti Ngurah Rai International Airport (WADD)

Arrival

Time 2026-05-01 07:25
Airport Tokyo Haneda International Airport (RJTT)
Time Latitude Longitude Altitude Speed Heading
2026-05-01 07:23 35.56848 139.85593 784 ft 116 kts 227°
2026-05-01 07:23 35.55849 139.84189 727 ft 127 kts 193°
2026-05-01 07:24 35.55157 139.83424 404 ft 127 kts 228°
2026-05-01 07:24 35.54362 139.82825 128 ft 136 kts 216°
2026-05-01 07:24 35.53792 139.81916 86 ft 141 kts 236°
2026-05-01 07:24 35.53186 139.81247 30 ft 95 kts 259°
2026-05-01 07:25 35.53074 139.80961 30 ft 0 kts 195°
2026-05-01 07:25 35.53061 139.80957 30 ft 11 kts 195°
2026-05-01 07:25 35.52954 139.80883 30 ft 23 kts 238°
2026-05-01 07:26 35.52894 139.80716 30 ft 0 kts 255°
2026-05-01 07:28 35.52889 139.80684 30 ft 8 kts 263°
2026-05-01 07:29 35.52920 139.80589 30 ft 17 kts 315°
2026-05-01 07:29 35.53046 139.80492 30 ft 26 kts 329°
2026-05-01 07:29 35.53227 139.80364 30 ft 34 kts 331°
2026-05-01 07:29 35.53453 139.80198 30 ft 40 kts 331°
2026-05-01 07:30 35.53664 139.80053 30 ft 21 kts 329°
2026-05-01 07:30 35.53675 139.80045 30 ft 0 kts 330°
2026-05-01 07:31 35.53691 139.80034 30 ft 8 kts 329°
2026-05-01 07:31 35.54284 139.79616 29 ft 55 kts 329°
2026-05-01 07:32 35.54664 139.79351 29 ft 1 kts 10°
2026-05-01 07:32 35.54670 139.79354 29 ft 3 kts 18°
2026-05-01 07:33 35.54820 139.79341 29 ft 0 kts 331°
2026-05-01 07:33 35.54834 139.79331 29 ft 0 kts 329°